Weather History for Puebla, Mexico

Change the Weather History Date:

Thursday, October 10, 2013

  Actual Average Record
Temperature  
Mean Temperature 63 °F -  
Max Temperature 76 °F 69 °F 76 °F (2013)
Min Temperature 50 °F 51 °F 42 °F (2010)
Degree Days  
Heating Degree Days 2    
Growing Degree Days 13 (Base 50)    
Moisture  
Dew Point 53 °F    
Average Humidity 66    
Maximum Humidity 100    
Minimum Humidity 30    
Precipitation  
Precipitation 0.04 in - - ()
Sea Level Pressure  
Sea Level Pressure 30.17 in    
Wind  
Wind Speed 3 mph ()    
Max Wind Speed 12 mph    
Max Gust Speed -    
Visibility 7.5 miles    
Events      
Averages and records for this station are not official NWS values.
T = Trace of Precipitation, MM = Missing Value Source: Averaged Metar Reports

Daily Weather History Graph

Daily Weather History Graph

Search for Another Location

Airport:

Trip Planner

Search our weather history database for the weather conditions in past years. The results will help you decide how hot, cold, wet, or windy it might be!

Date:

Astronomy

Oct. 10, 2013 Rise Set
Actual Time 7:26 AM CDT 7:14 PM CDT
Civil Twilight 7:04 AM CDT 7:36 PM CDT
Nautical Twilight 6:38 AM CDT 8:01 PM CDT
Astronomical Twilight 6:13 AM CDT 8:26 PM CDT
Moon 12:50 PM CDT (10/10) No Moon Set
Length of Visible Light 12h 31m
Length of Day
11h 47m
Waxing Crescent, 36% of the Moon is Illuminated
Oct 10
Waxing Crescent
Oct 11
First Quarter
Oct 18
Full
Oct 26
Last Quarter
Nov 3
New

Hourly Weather History & Observations

Time (CDT) Temp. Dew Point Humidity Pressure Visibility Wind Dir Wind Speed Gust Speed Precip Events Conditions
12:50 AM 58 °F 54 °F 81% 29.87 in 3 mi Calm Calm - -   Scattered Clouds
3:50 AM 55 °F 52 °F 84% 29.90 in 3 mi Calm Calm - -  
5:39 AM 53.6 °F 51.8 °F 94% 30.31 in 8.0 mi Calm Calm - N/A   Scattered Clouds
6:51 AM 50.0 °F 48.2 °F 94% 30.32 in 8.0 mi NNW 4.6 mph - N/A   Scattered Clouds
7:40 AM 50.0 °F 50.0 °F 100% 30.33 in 8.0 mi WNW 3.5 mph - N/A   Scattered Clouds
8:50 AM 59.0 °F 53.6 °F 82% 30.34 in 6.0 mi North 4.6 mph - N/A   Partly Cloudy
9:43 AM 62.6 °F 53.6 °F 72% 30.35 in 7.0 mi NNE 6.9 mph - N/A   Partly Cloudy
9:50 AM 63 °F 52 °F 58% 29.95 in 3 mi Calm Calm - -   Haze
10:40 AM 66.2 °F 53.6 °F 64% 30.35 in 8.0 mi Calm Calm - N/A   Scattered Clouds
11:54 AM 71.6 °F 53.6 °F 53% 30.34 in 8.0 mi SSW 9.2 mph - N/A   Mostly Cloudy
12:41 PM 69.8 °F 50.0 °F 49% 30.32 in 8.0 mi ESE 4.6 mph - N/A   Mostly Cloudy
12:50 PM 72 °F 47 °F 30% 29.89 in 12 mi North 2.2 mph - -   Mostly Cloudy
1:43 PM 75.2 °F 51.8 °F 44% 30.29 in 8.0 mi Calm Calm - N/A   Mostly Cloudy
2:49 PM 71.6 °F 51.8 °F 50% 30.26 in 8.0 mi SSE 5.8 mph - N/A   Mostly Cloudy
3:40 PM 73 °F 56 °F 45% 29.75 in 6 mi SE 2.2 mph - -   Haze
3:40 PM 75.2 °F 55.4 °F 50% 30.24 in 8.0 mi South 9.2 mph - N/A   Mostly Cloudy
4:48 PM 75.2 °F 55.4 °F 50% 30.23 in 8.0 mi South 10.4 mph - N/A   Mostly Cloudy
5:51 PM 68.0 °F 55.4 °F 64% 30.22 in 8.0 mi South 11.5 mph - N/A   Mostly Cloudy
6:40 PM 71 °F 50 °F 36% 29.67 in 12 mi SSE 2.2 mph - -   Partly Cloudy
6:40 PM 68.0 °F 55.4 °F 64% 30.23 in 8.0 mi South 11.5 mph - N/A   Mostly Cloudy
7:55 PM 62.6 °F 57.2 °F 82% 30.25 in 8.0 mi South 4.6 mph - N/A   Mostly Cloudy
9:50 PM 60.8 °F 55.4 °F 82% 30.30 in 8.0 mi Calm Calm - N/A   Mostly Cloudy
10:52 PM 60.8 °F 57.2 °F 88% 30.31 in 8.0 mi Calm Calm - N/A   Mostly Cloudy